Location: Igri�s
(42.2144°N, 0.4320°W)
Time: 18:14:06
(UTC+00:00)

COSMOS 2428 - Pass Details

Date: 13 August 2020
Orbit: 844 x 859 km, 70.9° (Epoch: 17 September)

Event Time Altitude Azimuth Distance (km) Brightness Sun altitude
Rises 22:56:34 0° 338° (NNW) 3,435 7.0 -31.2°
Reaches altitude 10° 22:59:04 10° 342° (NNW) 2,497 6.0 -31.4°
Enters shadow 23:03:51 55° 21° (NNE) 1,030 3.2 -31.7°
